User: anonymous   Login
Location: *
(33.8649°S, 62.1526°E)
Time: 01:49:58
(UTC+00:00)
Language:

ERS-1 Rocket - Orbit

View from above orbital plane
View from above orbital plane
View from above satellite
View from above satellite

Ground track
Ground track

The orbit data is extracted from the following two-line orbital elements,

1 21610U 91050F   21106.43432638  .00000023  00000-0  20680-4 0  9993
2 21610  98.4271 178.0782 0004397  78.2535 292.2095 14.40941830561330
Epoch (UTC): 16 April 2021 10:25:25
Eccentricity: 0.0004397
inclination: 98.4271°
perigee height: 752 km
apogee height: 758 km
right ascension of ascending node: 178.0782°
argument of perigee: 78.2535°
revolutions per day: 14.40941830
mean anomaly at epoch: 292.2095°
orbit number at epoch: 56133

The dashed part of the orbit path shows where the satellite is in the earth's shadow,  

DLR